Weather in Karavaevo

Russia / Kostroma Oblast     57°44′05″N   41°03′26″E
temp.,
°C
wind,
m/s
gust,
m/s
humid.,
%
clouds,
%
prec.,
mm/h
press.,
hPa
HPBL,
m
18 april, sun
sun1800:00+5ene39810 0.0 1026170
03:00+3ene39843 0.0 1026160
06:00+3ene3108238 0.0 1026228
09:00+9ene595869 0.0 1025680
12:00+11ene7948100 0.0 10251302
15:00+10ene6855100 0.0 10261483
18:00+7ene6972100 0.0 1027798
21:00+5ene61277100 0.0 1028755
19 april, mon
mon1900:00+4ene51075100 0.0 1029604
03:00+1ene51170100 0.0 1030508
06:000ene51272100 0.0 1030533
09:00+3e7105688 0.0 1030834
12:00+7e794614 0.0 10301618
15:00+9e783832 0.0 10291864
18:00+7e684428 0.0 10291653
21:00+3e511556 0.0 1030406
20 april, tue
tue2000:00+2e5136195 0.0 1030454
03:00+1e5126497 0.0 1030415
06:000e61363100 0.0 1029451
09:00+5ese7114983 0.0 1028696
12:00+9ese81045100 0.0 10271367
15:00+10ese7104598 0.0 10251545
18:00+9ese7114888 0.0 10231267
21:00+6ese71446100 0.0 1023707
21 april, wed
wed2100:00+5ese81649100 0.0 1020753
03:00+4ese81652100 0.1 1017854
06:00+2ese101978100 1.1 1013947
09:00+1ese101996100 4.6 1012826
12:00+2ese91896100 3.1 1010820
15:00+3se101893100 3.6 1009866
18:00+4se101892100 0.1 1008944
21:00+6sse81589100 0.5 10081194
22 april, thu
thu2200:00+4s91588100 0.2 10091131
03:00+4ssw81385100 0.3 10121116
06:00+4ssw61290100 0.2 1014734
09:00+6s7117770 0.2 10161057
12:00+8sw6106860 0.3 10171353
15:00+11ssw7106097 0.7 10181518
18:00+10sw586892 0.6 1019514
21:00+6ssw22837 0.7 102119